DHLLM EDDW-EDDH

Flight info

Callsign DHLLM
Flight time 0h 35m
Altitude
Route
Aircraft EC45

Departure

Time 2026-05-06 18:35
Airport Bremen Airport (EDDW)

Arrival

Time 2026-05-06 19:10
Airport Hamburg Helmut Schmidt Airport (EDDH)
Time Latitude Longitude Altitude Speed Heading
2026-05-06 18:29 53.05099 8.78344 16 ft 0 kts 51°
2026-05-06 18:31 53.05098 8.78344 20 ft 1 kts 54°
2026-05-06 18:31 53.05089 8.78419 33 ft 11 kts 108°
2026-05-06 18:32 53.05043 8.78539 40 ft 12 kts 143°
2026-05-06 18:32 53.04985 8.78619 37 ft 11 kts 165°
2026-05-06 18:32 53.04911 8.78646 33 ft 8 kts 179°
2026-05-06 18:32 53.04847 8.78655 35 ft 14 kts 182°
2026-05-06 18:33 53.04741 8.78642 33 ft 14 kts 132°
2026-05-06 18:33 53.04688 8.78714 50 ft 4 kts 91°
2026-05-06 18:33 53.04685 8.78745 51 ft 8 kts 91°
2026-05-06 18:33 53.04683 8.79032 179 ft 46 kts 89°
2026-05-06 18:34 53.04700 8.79811 230 ft 85 kts 83°
2026-05-06 18:34 53.04756 8.80832 335 ft 92 kts 73°
2026-05-06 18:34 53.05032 8.81778 432 ft 89 kts 53°
2026-05-06 18:34 53.05502 8.82408 597 ft 88 kts 34°
2026-05-06 18:35 53.05843 8.82789 672 ft 90 kts 33°
2026-05-06 18:35 53.06385 8.83353 701 ft 94 kts 31°
2026-05-06 18:35 53.06955 8.83924 754 ft 98 kts 36°
2026-05-06 18:35 53.07474 8.84679 813 ft 101 kts 41°
2026-05-06 18:36 53.08006 8.85472 870 ft 104 kts 41°
2026-05-06 18:36 53.08556 8.86272 868 ft 106 kts 40°
2026-05-06 18:36 53.09071 8.87161 886 ft 106 kts 48°
2026-05-06 18:36 53.09538 8.88110 955 ft 105 kts 50°
2026-05-06 18:37 53.09986 8.89062 1022 ft 103 kts 51°
2026-05-06 18:37 53.10413 8.90003 1011 ft 100 kts 53°
2026-05-06 18:37 53.10821 8.90919 990 ft 97 kts 53°
2026-05-06 18:37 53.11240 8.91804 984 ft 98 kts 50°
2026-05-06 18:38 53.11676 8.92682 992 ft 98 kts 50°
2026-05-06 18:38 53.12107 8.93536 990 ft 95 kts 50°
2026-05-06 18:38 53.12531 8.94384 993 ft 96 kts 49°
2026-05-06 18:38 53.12956 8.95240 994 ft 96 kts 50°
2026-05-06 18:39 53.13383 8.96105 991 ft 97 kts 50°
2026-05-06 18:39 53.13812 8.96977 996 ft 97 kts 50°
2026-05-06 18:39 53.14237 8.97835 990 ft 95 kts 50°
2026-05-06 18:40 53.15081 8.99550 992 ft 97 kts 50°
2026-05-06 18:40 53.15508 9.00422 995 ft 97 kts 50°
2026-05-06 18:40 53.15931 9.01282 996 ft 95 kts 49°
2026-05-06 18:40 53.16401 9.02048 995 ft 94 kts 44°
2026-05-06 18:41 53.16878 9.02798 994 ft 95 kts 45°
2026-05-06 18:41 53.17358 9.03559 993 ft 96 kts 44°
2026-05-06 18:41 53.17838 9.04328 996 ft 97 kts 44°
2026-05-06 18:41 53.18321 9.05095 995 ft 95 kts 44°
2026-05-06 18:42 53.18799 9.05854 997 ft 95 kts 44°
2026-05-06 18:42 53.19276 9.06612 992 ft 95 kts 44°
2026-05-06 18:42 53.19757 9.07381 993 ft 96 kts 44°
2026-05-06 18:42 53.20244 9.08163 999 ft 97 kts 43°
2026-05-06 18:43 53.20728 9.08933 997 ft 96 kts 42°
2026-05-06 18:43 53.21213 9.09704 996 ft 96 kts 42°
2026-05-06 18:43 53.21696 9.10475 993 ft 97 kts 44°
2026-05-06 18:43 53.22158 9.11217 1004 ft 94 kts 43°
2026-05-06 18:44 53.22613 9.12028 987 ft 96 kts 53°
2026-05-06 18:44 53.23049 9.12886 998 ft 97 kts 44°
2026-05-06 18:44 53.23557 9.13652 1006 ft 98 kts 40°
2026-05-06 18:44 53.24068 9.14387 996 ft 96 kts 40°
2026-05-06 18:45 53.24574 9.15150 1014 ft 95 kts 44°
2026-05-06 18:45 53.25048 9.15918 993 ft 97 kts 43°
2026-05-06 18:45 53.25541 9.16682 1003 ft 96 kts 43°
2026-05-06 18:45 53.26029 9.17436 999 ft 95 kts 41°
2026-05-06 18:46 53.26510 9.18182 994 ft 94 kts 43°
2026-05-06 18:46 53.26991 9.18941 1003 ft 94 kts 43°
2026-05-06 18:46 53.27466 9.19699 992 ft 95 kts 44°
2026-05-06 18:46 53.27940 9.20456 1000 ft 94 kts 44°
2026-05-06 18:47 53.28417 9.21219 1005 ft 95 kts 43°
2026-05-06 18:47 53.28893 9.21982 991 ft 96 kts 44°
2026-05-06 18:47 53.29373 9.22758 996 ft 96 kts 44°
2026-05-06 18:47 53.29856 9.23539 1003 ft 97 kts 43°
2026-05-06 18:48 53.30338 9.24308 998 ft 96 kts 43°
2026-05-06 18:48 53.30819 9.25080 1008 ft 95 kts 43°
2026-05-06 18:48 53.31298 9.25851 1000 ft 97 kts 44°
2026-05-06 18:48 53.31780 9.26627 999 ft 96 kts 44°
2026-05-06 18:49 53.32257 9.27396 997 ft 98 kts 45°
2026-05-06 18:49 53.32749 9.28188 991 ft 99 kts 45°
2026-05-06 18:49 53.33240 9.28979 992 ft 97 kts 45°
2026-05-06 18:49 53.33725 9.29759 1000 ft 96 kts 44°
2026-05-06 18:50 53.34209 9.30534 990 ft 99 kts 44°
2026-05-06 18:50 53.34699 9.31322 990 ft 97 kts 45°
2026-05-06 18:50 53.35186 9.32107 994 ft 97 kts 45°
2026-05-06 18:50 53.35678 9.32903 992 ft 99 kts 45°
2026-05-06 18:51 53.36172 9.33701 994 ft 98 kts 45°
2026-05-06 18:51 53.36660 9.34486 994 ft 96 kts 46°
2026-05-06 18:51 53.37149 9.35279 994 ft 99 kts 46°
2026-05-06 18:51 53.37646 9.36086 990 ft 100 kts 45°
2026-05-06 18:52 53.38141 9.36885 997 ft 99 kts 45°
2026-05-06 18:52 53.38633 9.37678 998 ft 98 kts 45°
2026-05-06 18:52 53.39129 9.38478 1005 ft 100 kts 44°
2026-05-06 18:52 53.39624 9.39273 992 ft 98 kts 44°
2026-05-06 18:53 53.40115 9.40070 1002 ft 99 kts 44°
2026-05-06 18:53 53.40613 9.40876 1003 ft 99 kts 44°
2026-05-06 18:53 53.41105 9.41668 997 ft 98 kts 45°
2026-05-06 18:53 53.41585 9.42441 1019 ft 90 kts 45°
2026-05-06 18:54 53.42038 9.43172 1009 ft 89 kts 45°
2026-05-06 18:54 53.42474 9.43880 994 ft 88 kts 45°
2026-05-06 18:54 53.42916 9.44604 1011 ft 88 kts 45°
2026-05-06 18:54 53.43354 9.45315 1002 ft 87 kts 45°
2026-05-06 18:55 53.43790 9.46024 990 ft 89 kts 45°
2026-05-06 18:55 53.44233 9.46750 995 ft 88 kts 45°
2026-05-06 18:55 53.44672 9.47464 1001 ft 87 kts 45°
2026-05-06 18:55 53.45113 9.48174 995 ft 88 kts 45°
2026-05-06 18:56 53.45556 9.48894 998 ft 89 kts 45°
2026-05-06 18:56 53.45998 9.49610 1000 ft 88 kts 45°
2026-05-06 18:56 53.46440 9.50326 997 ft 88 kts 45°
2026-05-06 18:56 53.46878 9.51034 994 ft 87 kts 46°
2026-05-06 18:57 53.47315 9.51746 1001 ft 88 kts 45°
2026-05-06 18:57 53.47756 9.52463 1000 ft 89 kts 45°
2026-05-06 18:57 53.48199 9.53183 992 ft 88 kts 46°
2026-05-06 18:57 53.48635 9.53896 994 ft 87 kts 46°
2026-05-06 18:58 53.49075 9.54616 995 ft 89 kts 45°
2026-05-06 18:58 53.49514 9.55331 996 ft 87 kts 46°
2026-05-06 18:58 53.49950 9.56039 998 ft 88 kts 46°
2026-05-06 18:58 53.50389 9.56753 1000 ft 88 kts 45°
2026-05-06 18:59 53.50835 9.57481 996 ft 89 kts 45°
2026-05-06 18:59 53.51278 9.58201 1045 ft 89 kts 45°
2026-05-06 18:59 53.51715 9.58924 1086 ft 88 kts 46°
2026-05-06 18:59 53.52148 9.59634 1100 ft 87 kts 46°
2026-05-06 19:00 53.52602 9.60338 1013 ft 93 kts 44°
2026-05-06 19:00 53.53095 9.61099 935 ft 97 kts 43°
2026-05-06 19:00 53.53634 9.61850 813 ft 105 kts 39°
2026-05-06 19:00 53.54178 9.62647 793 ft 102 kts 46°
2026-05-06 19:01 53.54676 9.63442 785 ft 98 kts 47°
2026-05-06 19:01 53.55162 9.64223 814 ft 95 kts 49°
2026-05-06 19:01 53.55634 9.64990 834 ft 93 kts 50°
2026-05-06 19:01 53.56078 9.65761 868 ft 90 kts 53°
2026-05-06 19:02 53.56478 9.66553 900 ft 88 kts 55°
2026-05-06 19:02 53.56840 9.67367 951 ft 86 kts 58°
2026-05-06 19:02 53.57159 9.68215 970 ft 85 kts 64°
2026-05-06 19:02 53.57396 9.69115 958 ft 83 kts 68°
2026-05-06 19:03 53.57612 9.70021 953 ft 83 kts 67°
2026-05-06 19:03 53.57826 9.70927 952 ft 84 kts 69°
2026-05-06 19:03 53.58040 9.71847 937 ft 84 kts 68°
2026-05-06 19:03 53.58252 9.72771 881 ft 85 kts 68°
2026-05-06 19:04 53.58468 9.73706 850 ft 85 kts 68°
2026-05-06 19:04 53.58687 9.74632 792 ft 85 kts 69°
2026-05-06 19:04 53.58905 9.75575 787 ft 87 kts 70°
2026-05-06 19:04 53.59118 9.76545 839 ft 90 kts 69°
2026-05-06 19:05 53.59348 9.77525 829 ft 90 kts 65°
2026-05-06 19:05 53.59628 9.78475 819 ft 90 kts 62°
2026-05-06 19:05 53.59943 9.79394 809 ft 91 kts 60°
2026-05-06 19:05 53.60282 9.80268 786 ft 90 kts 57°
2026-05-06 19:06 53.60662 9.81117 755 ft 90 kts 53°
2026-05-06 19:06 53.61035 9.81920 712 ft 86 kts 56°
2026-05-06 19:06 53.61386 9.82733 701 ft 87 kts 56°
2026-05-06 19:06 53.61719 9.83619 686 ft 92 kts 61°
2026-05-06 19:07 53.61965 9.84651 596 ft 100 kts 75°
2026-05-06 19:07 53.62074 9.85444 536 ft 105 kts 75°
2026-05-06 19:07 53.62304 9.86920 544 ft 98 kts 74°
2026-05-06 19:07 53.62436 9.88062 495 ft 101 kts 81°
2026-05-06 19:08 53.62483 9.89278 466 ft 105 kts 88°
2026-05-06 19:08 53.62454 9.90506 466 ft 108 kts 97°
2026-05-06 19:08 53.62277 9.91744 485 ft 108 kts 102°
2026-05-06 19:08 53.62082 9.92957 482 ft 107 kts 104°
2026-05-06 19:09 53.61849 9.94136 497 ft 104 kts 106°
2026-05-06 19:09 53.61580 9.95239 489 ft 99 kts 111°
2026-05-06 19:09 53.61379 9.96312 362 ft 93 kts 77°
2026-05-06 19:09 53.61684 9.97146 313 ft 78 kts 46°
2026-05-06 19:10 53.62054 9.97678 239 ft 59 kts 41°
2026-05-06 19:10 53.62291 9.97993 223 ft 30 kts 50°
2026-05-06 19:10 53.62411 9.98195 162 ft 18 kts 51°
2026-05-06 19:10 53.62473 9.98303 103 ft 10 kts 49°
2026-05-06 19:11 53.62514 9.98385 71 ft 7 kts 50°
2026-05-06 19:11 53.62538 9.98428 64 ft 4 kts 34°
2026-05-06 19:11 53.62552 9.98455 58 ft 3 kts 47°
2026-05-06 19:11 53.62523 9.98493 63 ft 8 kts 97°
2026-05-06 19:12 53.62510 9.98571 67 ft 9 kts 79°
2026-05-06 19:12 53.62519 9.98690 71 ft 11 kts 79°
2026-05-06 19:12 53.62532 9.98820 73 ft 12 kts 79°
2026-05-06 19:12 53.62550 9.98957 77 ft 12 kts 77°
2026-05-06 19:13 53.62565 9.99098 69 ft 12 kts 77°
2026-05-06 19:13 53.62580 9.99214 61 ft 8 kts 77°
2026-05-06 19:13 53.62566 9.99295 66 ft 8 kts 103°
2026-05-06 19:13 53.62540 9.99368 63 ft 4 kts 56°
2026-05-06 19:14 53.62539 9.99387 54 ft 1 kts 27°
2026-05-06 19:14 53.62546 9.99395 47 ft 0 kts 17°